This demonstration page uses our WeatherBlox Daily Observations layout. Learn more.

Hourly Observations for July 17, 2018

Temp ( °F °C ) Dew Point ( °F °C ) Humidity (%) Winds ( mph kmh ) Pressure ( in mb ) Visibility ( mi km ) Precip ( " mm )
12:15 am 00:15 Clear 71 21.8 70 21.3 97 97 SE 6 9 30 1016 10 16.0934 0 0
12:35 am 00:35 Clear 72 22.2 71 21.5 96 96 SE 7 11 29.97 1015 10 16.0934 0 0
12:55 am 00:55 Clear 72 22 70 21.3 96 96 ESE 7 11 29.97 1015 10 16.0934 0 0
1:15 am 01:15 Clear 72 22 70 21.1 95 95 E 5 7 30 1016 10 16.0934 0 0
1:35 am 01:35 Clear 71 21.6 70 21.2 98 98 E 8 13 30 1016 10 16.0934 0 0
1:55 am 01:55 Clear 70 21.3 70 21 98 98 E 6 9 30 1016 10 16.0934 0 0
2:15 am 02:15 Clear 71 21.5 70 21.3 99 99 ESE 6 9 30 1016 7 11.26538 0 0
2:35 am 02:35 Clear 71 21.5 71 21.4 99 99 ESE 8 13 29.97 1015 7 11.26538 0 0
2:55 am 02:55 Clear with Mist and Fog 71 21.5 71 21.5 100 100 SE 7 11 29.97 1015 5 8.0467 0 0
3:15 am 03:15 Clear 71 21.9 71 21.8 99 99 SE 7 11 29.97 1015 7 11.26538 0 0
3:35 am 03:35 Partly Cloudy 72 22.2 72 22 99 99 ESE 7 11 29.97 1015 7 11.26538 0 0
3:55 am 03:55 Partly Cloudy with Nearby Thunderstorms 72 22.1 72 22 99 99 E 7 11 30 1016 7 11.26538 0 0
4:15 am 04:15 Mostly Cloudy 72 22 72 22 100 100 ENE 7 11 30 1016 5 8.0467 0 0
4:35 am 04:35 Cloudy 72 22 72 22 100 100 E 14 22 29.97 1015 4 6.43736 0 0
4:55 am 04:55 Cloudy with Light Thunderstorms 72 22.1 72 22.1 100 100 ENE 9 15 29.97 1015 5 8.0467 0 0
5:15 am 05:15 Cloudy with Light Thunderstorms 72 22.2 72 22.2 100 100 ENE 7 11 30 1016 7 11.26538 0.01 0.254
5:35 am 05:35 Cloudy with Heavy Thunderstorms 69 20.7 68 19.9 95 95 W 24 39 30 1016 5 8.0467 0.06 1.524
5:55 am 05:55 Cloudy with Thunderstorms 68 20 67 19.7 98 98 NW 13 20 30.03 1017 7 11.26538 0.14 3.556
6:15 am 06:15 Cloudy with Light Thunderstorms 68 20.1 68 20.1 100 100 NNW 12 19 30.03 1017 7 11.26538 0.06 1.524
6:35 am 06:35 Cloudy with Thunderstorms 68 20.2 68 20.2 100 100 NNE 12 19 29.97 1015 7 11.26538 0.08 2.032
6:55 am 06:55 Cloudy with Light Rain 69 20.6 69 20.6 100 100 E 12 19 29.97 1015 5 8.0467 0.11 2.794
7:15 am 07:15 Cloudy with Light Rain 67 19.6 67 19.4 99 99 ESE 15 24 29.97 1015 10 16.0934 0.01 0.254
7:35 am 07:35 Mostly Cloudy 67 19.2 66 19.1 99 99 ESE 9 15 30 1016 10 16.0934 0.02 0.508
7:55 am 07:55 Mostly Cloudy 67 19.5 67 19.2 98 98 NW 3 6 30 1016 10 16.0934 0.02 0.508
8:15 am 08:15 Partly Cloudy 67 19.5 67 19.5 100 100 Calm 30 1016 10 16.0934 0 0
8:35 am 08:35 Mostly Cloudy 68 20 67 19.5 97 97 NE 6 9 30.03 1017 10 16.0934 0 0
8:55 am 08:55 Cloudy 68 20.1 67 19.6 97 97 ESE 6 9 30.06 1018 10 16.0934 0 0
9:15 am 09:15 Cloudy 69 20.7 68 19.8 95 95 Calm 30.03 1017 10 16.0934 0 0
9:35 am 09:35 Mostly Cloudy 70 21.3 67 19.4 89 89 Calm 30.03 1017 10 16.0934 0 0
9:55 am 09:55 Sunny 72 22 68 19.8 87 87 Calm 30.03 1017 10 16.0934 0 0
10:15 am 10:15 Sunny 72 22.4 68 19.9 86 86 NE 5 7 30.03 1017 10 16.0934 0 0
10:35 am 10:35 Sunny 74 23.1 67 19.6 81 81 NE 6 9 30.03 1017 10 16.0934 0 0
10:55 am 10:55 Partly Cloudy 74 23.4 67 19.6 79 79 Calm 30.03 1017 10 16.0934 0 0
11:15 am 11:15 Partly Cloudy 75 23.9 68 20.1 79 79 ENE 3 6 30.03 1017 10 16.0934 0 0
11:35 am 11:35 Partly Cloudy 76 24.5 68 20.1 77 77 ENE 5 7 30 1016 10 16.0934 0 0
11:55 am 11:55 Mostly Cloudy 76 24.6 68 20.1 76 76 ESE 6 9 30 1016 10 16.0934 0 0
12:15 pm 12:15 Cloudy 77 24.8 68 20.2 76 76 E 6 9 30 1016 10 16.0934 0 0
12:35 pm 12:35 Cloudy 76 24.7 69 20.3 77 77 ENE 6 9 30 1016 10 16.0934 0 0
12:55 pm 12:55 Mostly Cloudy 77 25 69 20.3 75 75 ENE 8 13 30 1016 10 16.0934 0 0
1:15 pm 13:15 Mostly Cloudy 77 24.9 68 20.2 75 75 E 9 15 29.97 1015 10 16.0934 0 0
1:35 pm 13:35 Partly Cloudy 78 25.7 69 20.7 74 74 ENE 6 9 29.97 1015 10 16.0934 0 0
1:55 pm 13:55 Partly Cloudy 79 26 69 20.6 72 72 E 7 11 29.97 1015 10 16.0934 0 0
2:15 pm 14:15 Mostly Cloudy 78 25.7 70 21 75 75 E 9 15 30 1016 10 16.0934 0 0
2:35 pm 14:35 Partly Cloudy 79 26.1 70 21.2 74 74 E 10 17 30 1016 10 16.0934 0 0
2:55 pm 14:55 Partly Cloudy 79 26.1 71 21.4 75 75 E 12 19 30 1016 10 16.0934 0 0
3:15 pm 15:15 Mostly Cloudy 78 25.6 70 20.9 75 75 E 10 17 30 1016 10 16.0934 0 0
3:35 pm 15:35 Partly Cloudy 79 26.2 70 20.9 73 73 E 9 15 30 1016 10 16.0934 0 0
3:55 pm 15:55 Partly Cloudy 80 26.4 70 20.9 72 72 E 12 19 30 1016 10 16.0934 0 0
4:15 pm 16:15 Partly Cloudy 80 26.5 69 20.7 71 71 ENE 8 13 30 1016 10 16.0934 0 0
4:35 pm 16:35 Partly Cloudy 80 26.4 69 20.7 71 71 E 8 13 29.97 1015 10 16.0934 0 0
4:55 pm 16:55 Partly Cloudy 79 26.1 69 20.7 72 72 E 9 15 29.97 1015 10 16.0934 0 0
5:15 pm 17:15 Partly Cloudy 80 26.6 69 20.6 70 70 E 12 19 29.97 1015 10 16.0934 0 0
5:35 pm 17:35 Mostly Cloudy 80 26.6 69 20.4 69 69 E 10 17 29.97 1015 10 16.0934 0 0
5:55 pm 17:55 Partly Cloudy 78 25.6 68 20.2 72 72 E 9 15 29.97 1015 10 16.0934 0 0
6:15 pm 18:15 Partly Cloudy 79 25.9 69 20.4 72 72 E 8 13 29.97 1015 10 16.0934 0 0
6:35 pm 18:35 Partly Cloudy 78 25.5 68 20.2 73 73 E 7 11 29.97 1015 10 16.0934 0 0
6:55 pm 18:55 Sunny 79 26 68 20.1 70 70 ESE 8 13 29.97 1015 10 16.0934 0 0
7:15 pm 19:15 Sunny 78 25.8 68 20.2 71 71 ESE 7 11 29.97 1015 10 16.0934 0 0
7:35 pm 19:35 Sunny 78 25.5 68 20 72 72 E 7 11 29.97 1015 10 16.0934 0 0
7:55 pm 19:55 Sunny 77 25.1 68 20.1 74 74 E 6 9 29.97 1015 10 16.0934 0 0
8:15 pm 20:15 Sunny 76 24.6 69 20.5 78 78 E 5 7 29.94 1014 10 16.0934 0 0
8:35 pm 20:35 Sunny 74 23.4 70 21 86 86 ESE 5 7 29.97 1015 10 16.0934 0 0
8:55 pm 20:55 Sunny 73 22.8 70 21.1 90 90 ESE 3 6 29.97 1015 10 16.0934 0 0
9:15 pm 21:15 Clear 72 22.3 70 21 92 92 ESE 5 7 30 1016 10 16.0934 0 0
9:35 pm 21:35 Clear 71 21.5 69 20.6 95 95 E 7 11 29.97 1015 10 16.0934 0 0
9:55 pm 21:55 Clear 71 21.7 69 20.4 92 92 E 6 9 29.97 1015 10 16.0934 0 0
10:15 pm 22:15 Clear 71 21.5 69 20.3 93 93 E 7 11 30 1016 10 16.0934 0 0
10:35 pm 22:35 Clear 70 21 68 20.1 95 95 E 7 11 30 1016 10 16.0934 0 0
10:55 pm 22:55 Clear 69 20.7 68 20.1 96 96 E 6 9 30 1016 10 16.0934 0 0
11:15 pm 23:15 Clear 69 20.5 69 20.3 99 99 E 6 9 30 1016 10 16.0934 0 0
11:35 pm 23:35 Mostly Cloudy 69 20.5 68 20.2 98 98 E 5 7 30.06 1018 10 16.0934 0 0
11:55 pm 23:55 Mostly Cloudy 69 20.6 69 20.5 99 99 ESE 7 11 30 1016 10 16.0934 0 0

Powered by AerisWeather